Weather History for Albertville, AL

Change the Weather History Date:

Thursday, November 8, 2012

  Actual Average (KGAD) Record (KGAD)
Temperature  
Mean Temperature 46 °F -  
Max Temperature 57 °F 63 °F 82 °F (1942)
Min Temperature 35 °F 41 °F 24 °F (2007)
Degree Days  
Heating Degree Days 19    
Moisture  
Dew Point 39 °F    
Average Humidity 82    
Maximum Humidity 100    
Minimum Humidity 47    
Precipitation  
Precipitation 0.00 in - - ()
Sea Level Pressure  
Sea Level Pressure 30.18 in    
Wind  
Wind Speed 3 mph (NNW)    
Max Wind Speed 9 mph    
Max Gust Speed -    
Visibility 6 miles    
Events Fog    
Averages and records for this station are not official NWS values.
T = Trace of Precipitation, MM = Missing Value Source: NWS Daily Summary

Daily Weather History Graph

Daily Weather History Graph

Search for Another Location

Airport:

Trip Planner

Search our weather history database for the weather conditions in past years. The results will help you decide how hot, cold, wet, or windy it might be!

Date:

Astronomy

Nov. 08, 2012 Rise Set
Actual Time 6:11 AM CST 4:45 PM CST
Civil Twilight 5:45 AM CST 5:11 PM CST
Nautical Twilight 5:15 AM CST 5:41 PM CST
Astronomical Twilight 4:45 AM CST 6:11 PM CST
Moon 12:21 AM CST (11/8) 1:12 PM CST (11/8)
Length of Visible Light 11h 26m
Length of Day
10h 33m
Waning Crescent, 32% of the Moon is Illuminated
Nov 8
Waning Crescent
Nov 13
New
Nov 20
First Quarter
Nov 28
Full
Dec 6
Last Quarter

Hourly Weather History & Observations

Time (CST) Temp. Windchill Dew Point Humidity Pressure Visibility Wind Dir Wind Speed Gust Speed Precip Events Conditions
12:15 AM 37.4 °F 33.8 °F 37.4 °F 100% 30.10 in 3.0 mi WNW 4.6 mph - N/A   Mist
12:35 AM 37.4 °F 34.9 °F 37.4 °F 100% 30.11 in 2.5 mi NW 3.5 mph - N/A   Mist
12:55 AM 39.2 °F 37.0 °F 39.2 °F 100% 30.10 in 3.0 mi WNW 3.5 mph - N/A   Mist
1:15 AM 39.2 °F - 39.2 °F 100% 30.11 in 3.0 mi Calm Calm - N/A   Mist
1:35 AM 37.4 °F - 37.4 °F 100% 30.11 in 1.2 mi Calm Calm - N/A   Mist
1:55 AM 35.6 °F 32.8 °F 35.6 °F 100% 30.12 in 0.8 mi NW 3.5 mph - N/A   Mist
2:15 AM 37.4 °F - 37.4 °F 100% 30.12 in 3.0 mi Calm Calm - N/A   Mist
2:35 AM 37.4 °F 33.8 °F 37.4 °F 100% 30.12 in 0.8 mi West 4.6 mph - N/A   Mist
2:55 AM 37.4 °F 34.9 °F 37.4 °F 100% 30.13 in 1.2 mi NW 3.5 mph - N/A   Mist
3:15 AM 37.4 °F 34.9 °F 37.4 °F 100% 30.13 in 2.5 mi NW 3.5 mph - N/A   Mist
3:35 AM 37.4 °F 32.8 °F 37.4 °F 100% 30.13 in 1.5 mi NNW 5.8 mph - N/A   Mist
3:55 AM 39.2 °F - 39.2 °F 100% 30.14 in 2.5 mi Calm Calm - N/A   Mist
4:15 AM 37.4 °F - 37.4 °F 100% 30.15 in 3.0 mi Calm Calm - N/A   Mist
4:35 AM 35.6 °F - 35.6 °F 100% 30.16 in 1.5 mi Calm Calm - N/A   Mist
4:55 AM 35.6 °F 32.8 °F 35.6 °F 100% 30.16 in 0.2 mi West 3.5 mph - N/A Fog Fog
5:15 AM 35.6 °F - 35.6 °F 100% 30.16 in 0.2 mi Calm Calm - N/A Fog Fog
5:35 AM 37.4 °F - 37.4 °F 100% 30.17 in 0.8 mi Calm Calm - N/A   Mist
6:15 AM 37.4 °F - 37.4 °F 100% 30.18 in 2.0 mi Calm Calm - N/A   Mist
6:35 AM 37.4 °F 34.9 °F 37.4 °F 100% 30.19 in 1.8 mi NNW 3.5 mph - N/A   Mist
6:55 AM 39.2 °F - 39.2 °F 100% 30.19 in 2.0 mi Calm Calm - N/A   Mist
7:15 AM 41.0 °F - 41.0 °F 100% 30.20 in 2.0 mi Calm Calm - N/A   Mist
7:35 AM 41.0 °F - 41.0 °F 100% 30.21 in 2.5 mi Calm Calm - N/A   Mist
7:55 AM 42.8 °F 39.3 °F 42.8 °F 100% 30.21 in 3.0 mi NNE 5.8 mph - N/A   Mist
8:15 AM 42.8 °F 38.6 °F 42.8 °F 100% 30.21 in 7.0 mi NNE 6.9 mph - N/A   Unknown
8:35 AM 44.6 °F 39.7 °F 44.6 °F 100% 30.22 in 7.0 mi NNE 9.2 mph - N/A   Unknown
8:55 AM 46.4 °F 42.4 °F 44.6 °F 93% 30.22 in 7.0 mi NNE 8.1 mph - N/A   Unknown
9:15 AM 46.4 °F 42.9 °F 44.6 °F 93% 30.23 in 7.0 mi NE 6.9 mph - N/A   Unknown
9:35 AM 46.4 °F 42.9 °F 44.6 °F 93% 30.23 in 7.0 mi North 6.9 mph - N/A   Unknown
9:55 AM 50.0 °F - 42.8 °F 76% 30.23 in 10.0 mi NNE 4.6 mph - N/A   Unknown
10:15 AM 51.8 °F - 41.0 °F 67% 30.22 in 10.0 mi ENE 3.5 mph - N/A   Unknown
10:35 AM 51.8 °F - 41.0 °F 67% 30.21 in 10.0 mi NNE 5.8 mph - N/A   Unknown
10:55 AM 53.6 °F - 41.0 °F 62% 30.20 in 10.0 mi North 4.6 mph - N/A   Unknown
11:15 AM 53.6 °F - 39.2 °F 58% 30.20 in 10.0 mi NNW 5.8 mph - N/A   Unknown
11:35 AM 53.6 °F - 37.4 °F 54% 30.19 in 10.0 mi North 5.8 mph - N/A   Unknown
11:55 AM 53.6 °F - 37.4 °F 54% 30.19 in 10.0 mi Calm Calm - N/A   Unknown
12:15 PM 55.4 °F - 37.4 °F 51% 30.18 in 10.0 mi NNW 3.5 mph - N/A   Unknown
12:35 PM 55.4 °F - 37.4 °F 51% 30.18 in 10.0 mi NW 4.6 mph - N/A   Unknown
12:55 PM 55.4 °F - 37.4 °F 51% 30.17 in 10.0 mi North 4.6 mph - N/A   Unknown
1:15 PM 55.4 °F - 35.6 °F 47% 30.17 in 10.0 mi NNW 8.1 mph - N/A   Unknown
1:35 PM 57.2 °F - 37.4 °F 48% 30.17 in 10.0 mi WNW 8.1 mph - N/A   Unknown
1:55 PM 55.4 °F - 37.4 °F 51% 30.17 in 10.0 mi NW 8.1 mph - N/A   Unknown
2:15 PM 55.4 °F - 37.4 °F 51% 30.17 in 10.0 mi WNW 5.8 mph - N/A   Unknown
2:35 PM 55.4 °F - 37.4 °F 51% 30.17 in 10.0 mi WNW 5.8 mph - N/A   Unknown
2:55 PM 57.2 °F - 37.4 °F 48% 30.17 in 10.0 mi NW 4.6 mph - N/A   Unknown
3:15 PM 55.4 °F - 35.6 °F 47% 30.17 in 10.0 mi NNW 6.9 mph - N/A   Unknown
3:35 PM 55.4 °F - 35.6 °F 47% 30.17 in 10.0 mi NNW 5.8 mph - N/A   Unknown
3:55 PM 55.4 °F - 35.6 °F 47% 30.17 in 10.0 mi NNW 4.6 mph - N/A   Unknown
4:15 PM 53.6 °F - 37.4 °F 54% 30.17 in 10.0 mi NNW 4.6 mph - N/A   Unknown
4:35 PM 53.6 °F - 37.4 °F 54% 30.17 in 10.0 mi NW 4.6 mph - N/A   Unknown
4:55 PM 51.8 °F - 37.4 °F 58% 30.17 in 10.0 mi NW 4.6 mph - N/A   Unknown
5:15 PM 50.0 °F - 39.2 °F 66% 30.18 in 10.0 mi Calm Calm - N/A   Unknown
5:35 PM 50.0 °F - 39.2 °F 66% 30.18 in 10.0 mi Calm Calm - N/A   Unknown
5:55 PM 48.2 °F - 39.2 °F 71% 30.19 in 10.0 mi Calm Calm - N/A   Unknown
6:15 PM 50.0 °F - 41.0 °F 71% 30.19 in 10.0 mi NW 3.5 mph - N/A   Unknown
6:35 PM 48.2 °F - 41.0 °F 76% 30.19 in 10.0 mi Calm Calm - N/A   Unknown
6:55 PM 46.4 °F - 41.0 °F 81% 30.19 in 10.0 mi Calm Calm - N/A   Unknown
7:15 PM 44.6 °F - 39.2 °F 81% 30.19 in 10.0 mi Calm Calm - N/A   Unknown
7:35 PM 44.6 °F - 39.2 °F 81% 30.19 in 10.0 mi Calm Calm - N/A   Unknown
7:55 PM 44.6 °F - 39.2 °F 81% 30.19 in 10.0 mi Calm Calm - N/A   Unknown
8:15 PM 42.8 °F - 42.8 °F 100% 30.19 in 10.0 mi Calm Calm - N/A   Unknown
8:35 PM 41.0 °F - 41.0 °F 100% 30.19 in 7.0 mi Calm Calm - N/A   Unknown
8:55 PM 41.0 °F - 41.0 °F 100% 30.19 in 10.0 mi Calm Calm - N/A   Unknown
9:15 PM 41.0 °F - 41.0 °F 100% 30.19 in 7.0 mi Calm Calm - N/A   Unknown
9:35 PM 41.0 °F - 41.0 °F 100% 30.19 in 5.0 mi Calm Calm - N/A   Mist
9:55 PM 41.0 °F - 41.0 °F 100% 30.19 in 10.0 mi Calm Calm - N/A   Unknown
10:15 PM 41.0 °F - 41.0 °F 100% 30.19 in 5.0 mi Calm Calm - N/A   Mist
10:35 PM 39.2 °F - 39.2 °F 100% 30.19 in 5.0 mi Calm Calm - N/A   Mist
10:55 PM 37.4 °F - 37.4 °F 100% 30.19 in 5.0 mi Calm Calm - N/A   Mist
11:15 PM 37.4 °F - 37.4 °F 100% 30.19 in 4.0 mi Calm Calm - N/A   Mist
11:35 PM 37.4 °F - 37.4 °F 100% 30.19 in 4.0 mi Calm Calm - N/A   Mist
11:55 PM 39.2 °F - 39.2 °F 100% 30.19 in 4.0 mi Calm Calm - N/A   Mist